Flag for U.S.A. Weather past 2 weeks in Wright, Florida, U.S.A.

Now
36 °F

Passing clouds.


Feels Like: 26 °F
Forecast: 33 / 55 °F
Wind: 17 mph from North

Location: Hurlburt Field

Current Time: Mar 6, 2015 at 2:34:12 AM

Latest Report: Mar 6, 2015 at 1:58 AM


Visibility: 10 mi

Pressure: 30.32 "Hg

Humidity: 59%

Dew point: 23 °F

Location of WrightLocation

Historic Weather in Wright — Graph

°F

Wright temperature yesterday

Maximum temperature yesterday: 70 °F (at 8:45 AM)
Minimum temperature yesterday: 38 °F (at 11:58 PM)
Average temperature yesterday: 56 °F

Past Weeks' High & Low Weather Summary

 TemperatureHumidityPressure
High71 °F (Feb 22, 1:58 PM)94% (Feb 22, 5:58 PM)30.46 "Hg (Feb 22, 5:58 PM)
Low26 °F (Feb 19, 5:58 AM)12% (Feb 19, 3:58 PM)29.57 "Hg (Feb 25, 5:58 PM)
Average53 °F72%30.17 "Hg
* Reported Feb 19 12:58 AM — Mar 6 12:58 AM, Wright, Weather by CustomWeather, © 2015

Note: Actual official high and low records may vary slightly from our data, if they occured in-between our weather recording intervals... More about our weather records

Advertising

Wright weather history for previous 24 hours

 ConditionsComfort  
Time TempWeatherWind HumidityBarometerVisibility
12:58 AM
Fri, Mar 6
38 °FOvercast.18 mph58%30.32 "Hg10 mi
11:58 PM
Thu, Mar 5
38 °FPartly cloudy.16 mph57%30.32 "Hg10 mi
10:58 PM39 °FOvercast.16 mph57%30.32 "Hg10 mi
9:58 PM39 °FPassing clouds.17 mph62%30.30 "Hg10 mi
8:58 PM40 °FPassing clouds.18 mph63%30.30 "Hg10 mi
7:58 PM41 °FOvercast.26 mph62%30.27 "Hg10 mi
6:58 PM42 °FClear.23 mph65%30.25 "Hg10 mi
5:58 PM44 °FOvercast.17 mph67%30.22 "Hg10 mi
4:58 PM47 °FOvercast.21 mph61%30.19 "Hg10 mi
3:58 PM54 °FPartly sunny.23 mph49%30.14 "Hg10 mi
3:55 PM61 °FBroken clouds.12 mph42%30.12 "Hg7 mi
2:58 PM61 °FScattered clouds.22 mph44%30.09 "Hg10 mi
1:58 PM61 °FSunny.21 mph50%30.06 "Hg10 mi
12:58 PM54 °FOvercast.12 mph68%30.09 "Hg10 mi
11:58 AM52 °FLow clouds.15 mph77%30.09 "Hg10 mi
10:58 AM54 °FMostly cloudy.20 mph79%30.06 "Hg10 mi
9:59 AM70 °FLight rain. Fog.14 mph78%30.02 "Hg3 mi
8:45 AM70 °FFog.12 mph83%30.01 "Hg2 mi
7:58 AM69 °FFog.9 mph85%30.01 "Hg1 mi
6:58 AM68 °FFog.10 mph83%29.98 "Hg1 mi
5:58 AM68 °FFog.10 mph84%29.96 "Hg0 mi
4:58 AM68 °FFog.9 mph84%29.96 "Hg0 mi
3:58 AM67 °FFog.12 mph84%29.93 "Hg1 mi
2:58 AM68 °FFog.12 mph85%29.96 "Hg2 mi
Weather by CustomWeather, © 2015

See weather overviewHow to use our weather pages